Location: Arcueil
(48.7999°N, 2.3326°E)
Time: 07:45:48
(UTC+00:00)

ATLAS 2AS CENTAUR R/B - Pass Details

Date: 03 February 2023
Orbit: 986 x 1226 km, 63.7° (Epoch: 31 January)

Event Time Altitude Azimuth Distance (km) Brightness Sun altitude
Rises 18:22:03 0° 317° (NW) 3,973 6.2 -15.1°
Reaches altitude 10° 18:24:51 10° 314° (NW) 2,975 5.6 -15.6°
Maximum altitude 18:31:43 60° 237° (WSW) 1,205 3.2 -16.7°
Drops below altitude 10° 18:38:10 10° 160° (SSE) 2,802 4.7 -17.8°
Sets 18:40:44 0° 156° (SSE) 3,726 5.4 -18.2°
